Location: Hartha
(51.1030°N, 12.9600°E)
Time: 20:48:42
(UTC+02:00)

Daily predictions for brighter satellites

Satellite Brightness Start Highest point End
(mag) Time Altitude Azimuth Time Altitude Azimuth Time Altitude Azimuth
Cosmos 2278 Rocket 2.4 21:22:35 10° S 21:27:59 49° ESE 21:33:27 10° NE
ATLAS 5 CENTAUR R/B 4.1 21:24:17 10° WNW 21:28:59 27° WSW 21:34:16 10° S
Cosmos 2074 Rocket 4.5 21:23:23 10° N 21:29:28 47° ENE 21:35:30 10° SE
Cosmos 2184 Rocket 4.5 21:23:31 10° N 21:29:29 45° ENE 21:35:21 10° SE
Cosmos 1538 Rocket 4.1 21:27:33 10° NNW 21:32:58 88° ENE 21:38:17 10° SSE
Terra 3.5 21:30:15 10° ESE 21:33:45 21° ENE 21:37:15 10° N
ERS-1 Rocket 4.1 21:30:26 10° ESE 21:34:44 29° ENE 21:39:03 10° N
Spot 2 Rocket 4.1 21:33:14 10° SE 21:37:59 43° ENE 21:42:44 10° N
SPOT 3 Rocket 3.6 21:35:28 10° SSE 21:40:37 87° ENE 21:45:49 10° NNW
Meteor 2-6 Rocket 4.4 21:35:48 10° SSE 21:41:02 51° E 21:46:27 10° NNE
Meteor 1-14 Rocket 4.4 21:35:13 10° NNW 21:41:05 82° W 21:46:48 10° S
Cosmos 1437 2.5 21:38:26 10° SSW 21:41:15 82° W 21:44:06 10° N
USA 307 3.8 21:37:21 10° WNW 21:41:21 39° SW 21:45:21 10° SSE
Cosmos 1680 Rocket 4.1 21:42:25 10° NNW 21:47:35 47° ENE 21:52:40 10° SE
Cosmos 1666 2.7 21:44:02 10° N 21:47:45 63° ENE 21:51:27 10° SSE
Cosmos 1812 2.7 21:50:01 10° S 21:53:50 74° E 21:57:43 10° NNE
OBJECT-B 3.7 21:52:13 10° SW 21:54:15 15° W 21:56:16 10° NW
USA 308 4.0 21:51:14 10° WNW 21:55:06 33° SW 21:58:53 10° SSE
Cosmos 1833 Rocket 3.4 21:50:48 10° NW 21:56:16 51° WSW 22:01:42 10° S
Cosmos 2315 Rocket 4.3 21:50:47 10° SSW 21:57:09 75° WNW 22:03:34 10° N
ERBS 2.9 21:54:16 10° NW 21:57:30 52° NNE 22:00:45 10° ESE
SPOT 5 3.7 21:54:07 10° SE 21:58:57 44° ENE 22:04:02 10° N
Cosmos 2228 Rocket 3.7 21:57:42 10° SSE 22:01:49 38° E 22:05:59 10° NNE
Landsat 7 4.1 21:58:47 10° S 22:03:31 68° WSW 22:08:18 10° NNW
Cosmos 1782 4.1 21:59:50 10° SSW 22:03:38 42° WNW 22:07:26 10° N
Resurs 01 Rocket 2.4 21:59:45 10° S 22:04:05 51° W 22:08:26 10° NNW
Cosmos 1515 Rocket 3.5 21:59:57 10° S 22:04:20 86° E 22:08:45 10° N
Cosmos 1777 Rocket 4.3 22:00:30 10° SSW 22:05:41 72° WNW 22:10:55 10° NNE
BREEZE-M DEB (TANK) 3.8 21:53:57 10° WSW 22:06:00 90° SSW 22:09:16 10° ENE
BREEZE-M DEB (TANK) 1.3 22:04:45 10° W 22:06:49 46° S 22:08:22 16° ESE
ISS -2.6 22:04:46 10° SSW 22:07:30 23° SE 22:10:15 10° E
Cosmos 1869 Rocket 3.9 22:03:39 10° N 22:07:54 51° ENE 22:11:32 14° SSE
NOSS 3-4 (A) 4.1 22:04:22 10° NW 22:11:12 64° SW 22:18:18 12° SSE
NOSS 3-4 (C) 4.1 22:04:29 10° NW 22:11:19 64° SW 22:18:24 12° SSE
CZ-2C R/B 3.6 22:08:15 10° NNE 22:12:48 79° ESE 22:17:23 10° SSW
Gbstr 26 Del rocket 4.3 22:06:20 10° WNW 22:14:12 81° SSW 22:20:50 10° ESE
Cosmos 1743 3.9 22:12:08 10° N 22:15:35 30° ENE 22:18:06 15° SE
SL-24 R/B - RUBIN 2 4.0 22:11:23 10° NW 22:17:02 87° NE 22:21:06 16° SE
Meteor 1-11 Rocket 3.9 22:16:54 10° NNW 22:22:54 88° ENE 22:28:21 12° SSE
Iridium 4 Rocket 3.8 22:17:14 10° S 22:23:07 83° E 22:29:02 10° N
Meteor 2-12 Rocket 4.4 22:17:06 10° N 22:23:12 81° E 22:28:43 13° SSE
Cosmos 1898 Rocket 4.1 22:19:00 10° S 22:23:54 39° ESE 22:28:51 10° NE
EP 1 4.2 22:21:08 10° SW 22:24:09 79° SE 22:26:46 10° NE
Cosmos 990 Rocket 4.3 22:19:16 10° S 22:24:16 47° ESE 22:29:19 10° NNE
ATLAS 2AS CENTAUR R/B 2.9 22:17:15 10° NW 22:24:44 81° SW 22:30:28 16° SE
Cosmos 1818 3.7 22:19:19 10° NW 22:24:49 72° NE 22:29:16 16° SE
Cosmos 923 Rocket 4.1 22:20:13 10° NNW 22:25:30 77° WSW 22:30:00 14° SSE
USA 215 4.0 22:21:47 10° ENE 22:28:07 54° N 22:34:27 10° W
Cosmos 1340 Rocket 3.2 22:24:07 10° N 22:28:08 52° ENE 22:30:52 19° SE
CARTOSAT-1 3.6 22:25:51 14° SSE 22:29:32 84° WSW 22:33:54 10° NNW
Cosmos 2297 4.1 22:26:20 10° S 22:31:39 42° ESE 22:36:57 10° NE
BREEZE-M R/B 1.7 22:41:35 10° W 22:43:59 64° S 22:45:25 23° ESE
Cosmos 2082 Rocket 3.1 22:39:39 10° NW 22:44:54 41° WSW 22:49:37 13° S
SJ 16-02 2.3 22:40:38 10° SW 22:44:57 50° WNW 22:49:17 10° NNE
SL-8 Rocket 4.5 22:41:27 10° N 22:47:35 49° ENE 22:51:54 19° SE
Cosmos 1536 3.0 22:46:13 10° NNW 22:50:15 68° W 22:53:04 19° S
Cosmos 2084 Rocket 3.6 22:46:21 10° NW 22:50:35 65° SW 22:53:10 24° SSE
ARIANE 5 R/B 3.3 22:47:09 14° S 22:50:44 49° W 22:54:59 10° NNW
Cosmos 1733 Rocket 3.4 22:49:28 10° N 22:53:42 51° ENE 22:56:03 24° SE
Cosmos 44 3.9 22:51:03 10° NW 22:56:21 53° WSW 22:59:42 21° SSE
Cosmos 1515 4.2 22:56:13 27° SE 22:57:47 41° E 23:01:23 10° NNE
Cosmos 1943 Rocket 2.4 22:55:14 15° S 22:59:41 50° ESE 23:05:05 10° NE
Cosmos 2112 Rocket 4.4 22:58:41 10° NNW 23:03:56 58° WSW 23:07:33 20° S
Cosmos 1271 Rocket 4.3 23:00:36 10° SW 23:04:18 35° WNW 23:08:02 10° N
Cosmos 1975 3.6 23:03:49 10° N 23:07:34 38° ENE 23:09:15 25° ESE
Cosmos 2154 Rocket 4.5 23:02:15 10° NNW 23:08:27 58° W 23:13:44 14° SSW
Terra 2.0 23:07:58 22° S 23:11:03 67° WSW 23:15:49 10° NNW
Cosmos 2278 Rocket 3.8 23:07:01 10° WSW 23:12:16 37° NW 23:17:32 10° NNE
ERS-1 Rocket 3.7 23:09:37 17° S 23:13:20 48° W 23:18:14 10° NNW
Cosmos 962 Rocket 4.5 23:09:04 10° NNW 23:15:13 82° W 23:19:25 22° S
Cosmos 1900 4.3 23:10:40 10° SW 23:15:46 86° SE 23:20:49 10° NE
Cosmos 2369 Rocket 2.7 23:14:38 25° SSE 23:17:14 39° ESE 23:22:27 10° NE
RESURS DK-1 3.1 23:13:24 10° NNW 23:17:27 46° NE 23:19:39 24° ESE
Nadezhda 1 Rocket 4.4 23:12:08 10° SSW 23:18:21 63° WNW 23:24:32 10° N
Cosmos 1937 Rocket 3.4 23:15:45 16° SSW 23:19:55 79° ESE 23:25:08 10° NNE
Cosmos 1867 4.4 23:19:57 26° SSE 23:21:36 31° ESE 23:26:22 10° NE
Cosmos 1544 4.3 23:22:00 10° NNW 23:25:19 34° W 23:27:16 20° SW
Meteor 2-9 Rocket 4.2 23:23:49 10° NNW 23:29:38 87° E 23:32:47 28° SSE
ERBS 3.2 23:30:32 10° WNW 23:33:31 31° SW 23:33:40 31° SW
Cosmos 1048 Rocket 4.3 23:31:05 10° NNW 23:36:24 62° ENE 23:39:10 27° SE
SPOT 5 4.4 23:33:21 14° SSW 23:37:08 33° W 23:41:57 10° NNW
H-2A R/B 4.1 23:38:36 10° N 23:42:42 53° WNW 23:45:34 18° SW
Cosmos 1862 Rocket 3.4 23:41:00 31° S 23:43:01 88° WNW 23:47:22 10° N
ISS -3.9 23:40:37 10° WSW 23:43:59 75° SSE 23:47:22 10° E
Cosmos 1703 Rocket 4.4 23:43:10 30° SE 23:44:22 37° E 23:48:27 10° NNE
Cosmos 1782 Rocket 4.4 23:40:44 10° N 23:44:55 39° ENE 23:46:37 28° ESE
Okean 1-7 3.8 23:44:04 30° ESE 23:45:08 35° E 23:49:04 10° NNE
Spot 4 4.0 23:43:53 31° SE 23:46:08 65° ENE 23:50:57 10° N
Cosmos 1821 Rocket 4.5 23:42:44 10° N 23:49:00 52° ENE 23:52:29 26° SE
Cosmos 2366 rocket 4.0 23:43:41 10° NNW 23:49:54 80° W 23:53:25 28° S
Cosmos 1743 4.4 23:47:59 10° NNW 23:51:16 26° W 23:53:10 18° SW
Cosmos 1461 3.1 23:47:22 13° SW 23:51:38 86° NW 23:56:16 10° NE
Cosmos 2263 4.5 23:50:10 30° S 23:52:46 52° ESE 23:58:23 10° NE
Cosmos 2181 Rocket 3.9 23:48:59 24° S 23:52:53 86° W 23:59:03 10° N
Cosmos 1238 Rocket 4.1 23:47:09 10° NNW 23:52:59 55° W 23:55:49 25° SSW
Cosmos 1607 4.2 23:50:11 26° S 23:53:39 52° ESE 23:59:56 10° NE
Meteor 1-19 Rocket 4.1 23:50:33 26° SSW 23:53:44 84° WNW 23:59:12 10° NNE
SL-27 R/B 2.7 23:53:09 10° NNW 23:56:27 56° ENE 23:57:03 47° ESE
